| time (UTC) | temp F | wind direction | speed MPH | gust MPH | rain 1hr in | rain 24hr in | rain mn in | humidity % | barometer mb |
| 20260508002046 | 44 | 71 | 0.0 | 1.0 | 0.00 | 0.00 | 0.00 | 100 | |
| 20260508001646 | 44 | 69 | 0.0 | 2.0 | 0.00 | 0.00 | 0.00 | 100 | |
| 20260508001244 | 44 | 69 | 1.0 | 1.0 | 0.00 | 0.00 | 0.00 | 100 | |
| 20260508000844 | 44 | 69 | 1.0 | 2.0 | 0.00 | 0.00 | 0.00 | 100 | |
| 20260508000444 | 44 | 69 | 2.0 | 4.0 | 0.00 | 0.00 | 0.00 | 100 | |
| 20260508000043 | 45 | 69 | 2.0 | 4.0 | 0.00 | 0.00 | 0.00 | 100 | |
| 20260507235643 | 45 | 69 | 2.0 | 2.0 | 0.00 | 0.00 | 0.00 | 100 | |
| 20260507235241 | 45 | 71 | 2.0 | 3.0 | 0.00 | 0.00 | 0.00 | 100 | |
| 20260507234841 | 45 | 69 | 2.0 | 2.0 | 0.00 | 0.00 | 0.00 | 100 | |
| 20260507234442 | 45 | 69 | 1.0 | 1.0 | 0.00 | 0.00 | 0.00 | 100 | |
| 20260507234041 | 45 | 46 | 2.0 | 4.0 | 0.00 | 0.00 | 0.00 | 100 | |
| 20260507233641 | 45 | 21 | 2.0 | 3.0 | 0.00 | 0.00 | 0.00 | 100 | |
| 20260507233239 | 45 | 26 | 2.0 | 4.0 | 0.00 | 0.00 | 0.00 | 100 | |
| 20260507232839 | 45 | 9 | 2.0 | 4.0 | 0.00 | 0.00 | 0.00 | 100 | |
| 20260507232439 | 45 | 346 | 2.0 | 5.0 | 0.00 | 0.00 | 0.00 | 100 | |
| 20260507232039 | 44 | 30 | 2.0 | 4.0 | 0.00 | 0.00 | 0.00 | 100 | |
| 20260507231639 | 44 | 33 | 3.0 | 5.0 | 0.00 | 0.00 | 0.00 | 100 | |
| 20260507231228 | 44 | 64 | 3.0 | 6.0 | 0.00 | 0.00 | 0.00 | 100 | |
| 20260507230828 | 44 | 63 | 2.0 | 5.0 | 0.00 | 0.00 | 0.00 | 100 | |
| 20260507230428 | 44 | 88 | 5.0 | 8.0 | 0.00 | 0.00 | 0.00 | 100 | |
| 20260507230027 | 44 | 75 | 2.0 | 3.0 | 0.00 | 0.00 | 0.00 | 100 | |
| 20260507225628 | 44 | 47 | 2.0 | 3.0 | 0.00 | 0.00 | 0.00 | 100 | |
| 20260507225226 | 44 | 74 | 2.0 | 2.0 | 0.00 | 0.00 | 0.00 | 100 | |
| 20260507224826 | 44 | 68 | 2.0 | 4.0 | 0.00 | 0.00 | 0.00 | 100 | |
| 20260507224426 | 44 | 74 | 2.0 | 4.0 | 0.00 | 0.00 | 0.00 | 100 | |
| 20260507224026 | 44 | 70 | 2.0 | 3.0 | 0.00 | 0.00 | 0.00 | 100 | |
| 20260507223626 | 44 | 72 | 2.0 | 6.0 | 0.00 | 0.00 | 0.00 | 100 | |
| 20260507223224 | 44 | 72 | 4.0 | 8.0 | 0.00 | 0.00 | 0.00 | 100 | |
| 20260507222824 | 44 | 67 | 5.0 | 9.0 | 0.00 | 0.00 | 0.00 | 100 | |
| 20260507222424 | 45 | 69 | 3.0 | 7.0 | 0.00 | 0.00 | 0.00 | 100 | |
| 20260507222023 | 45 | 53 | 2.0 | 4.0 | 0.00 | 0.00 | 0.00 | 100 | |
| 20260507221623 | 45 | 73 | 5.0 | 8.0 | 0.00 | 0.00 | 0.00 | 100 | |
| 20260507221221 | 45 | 65 | 5.0 | 9.0 | 0.00 | 0.00 | 0.00 | 100 | |
| 20260507220821 | 45 | 57 | 4.0 | 6.0 | 0.00 | 0.00 | 0.00 | 100 | |
| 20260507220421 | 45 | 70 | 3.0 | 6.0 | 0.00 | 0.00 | 0.00 | 100 | |
| 20260507220021 | 45 | 72 | 5.0 | 8.0 | 0.00 | 0.00 | 0.00 | 100 | |
| 20260507215620 | 45 | 64 | 4.0 | 8.0 | 0.00 | 0.00 | 0.00 | 100 | |
| 20260507215219 | 45 | 74 | 4.0 | 8.0 | 0.00 | 0.00 | 0.00 | 100 | |
| 20260507214819 | 45 | 47 | 6.0 | 10.0 | 0.00 | 0.00 | 0.00 | 100 | |
| 20260507214418 | 45 | 61 | 6.0 | 10.0 | 0.00 | 0.00 | 0.00 | 100 | |
| 20260507214016 | 45 | 59 | 6.0 | 10.0 | 0.00 | 0.00 | 0.00 | 100 | |
| 20260507213616 | 45 | 72 | 6.0 | 12.0 | 0.00 | 0.00 | 0.00 | 100 | |
| 20260507213214 | 45 | 58 | 6.0 | 9.0 | 0.00 | 0.00 | 0.00 | 100 | |
| 20260507212814 | 45 | 75 | 5.0 | 7.0 | 0.00 | 0.00 | 0.00 | 100 | |
| 20260507212414 | 45 | 51 | 7.0 | 12.0 | 0.00 | 0.00 | 0.00 | 100 | |
| 20260507212014 | 45 | 55 | 5.0 | 8.0 | 0.00 | 0.00 | 0.00 | 100 | |
| 20260507211614 | 45 | 32 | 5.0 | 8.0 | 0.00 | 0.00 | 0.00 | 100 | |
| 20260507211212 | 45 | 23 | 7.0 | 10.0 | 0.00 | 0.00 | 0.00 | 100 | |
| 20260507210812 | 45 | 21 | 5.0 | 7.0 | 0.00 | 0.00 | 0.00 | 100 | |
| 20260507210411 | 46 | 31 | 4.0 | 6.0 | 0.00 | 0.00 | 0.00 | 100 | |
| 20260507210011 | 46 | 27 | 4.0 | 6.0 | 0.00 | 0.00 | 0.00 | 100 | |
| 20260507205612 | 46 | 16 | 5.0 | 6.0 | 0.00 | 0.00 | 0.00 | 100 | |
| 20260507205210 | 46 | 12 | 5.0 | 8.0 | 0.00 | 0.00 | 0.00 | 100 | |
| 20260507204810 | 46 | 17 | 5.0 | 6.0 | 0.00 | 0.00 | 0.00 | 100 | |
| 20260507204410 | 46 | 17 | 5.0 | 7.0 | 0.00 | 0.00 | 0.00 | 100 | |
| 20260507204010 | 46 | 25 | 4.0 | 6.0 | 0.00 | 0.00 | 0.00 | 100 | |
| 20260507203602 | 46 | 22 | 4.0 | 5.0 | 0.00 | 0.00 | 0.00 | 100 | |
| 20260507203201 | 46 | 0 | 3.0 | 6.0 | 0.00 | 0.00 | 0.00 | 100 | |
| 20260507202801 | 46 | 330 | 2.0 | 6.0 | 0.00 | 0.00 | 0.00 | 100 | |
| 20260507202401 | 46 | 326 | 2.0 | 6.0 | 0.00 | 0.00 | 0.00 | 100 | |
| 20260507202000 | 46 | 286 | 3.0 | 5.0 | 0.00 | 0.00 | 0.00 | 100 | |
| 20260507201600 | 46 | 275 | 3.0 | 6.0 | 0.00 | 0.00 | 0.00 | 100 | |
| 20260507201158 | 46 | 261 | 4.0 | 7.0 | 0.00 | 0.00 | 0.00 | 100 | |
| 20260507200758 | 46 | 263 | 4.0 | 6.0 | 0.00 | 0.00 | 0.00 | 100 | |
| 20260507200358 | 47 | 241 | 5.0 | 11.0 | 0.00 | 0.00 | 0.00 | 100 | |
| 20260507195958 | 47 | 214 | 6.0 | 10.0 | 0.00 | 0.00 | 0.00 | 100 | |
| 20260507195558 | 47 | 267 | 5.0 | 8.0 | 0.00 | 0.00 | 0.00 | 100 | |
| 20260507195156 | 47 | 275 | 5.0 | 8.0 | 0.00 | 0.00 | 0.00 | 100 | |
| 20260507194756 | 47 | 262 | 5.0 | 10.0 | 0.00 | 0.00 | 0.00 | 100 | |
| 20260507194356 | 47 | 260 | 5.0 | 8.0 | 0.00 | 0.00 | 0.00 | 100 | |
| 20260507193956 | 47 | 221 | 6.0 | 12.0 | 0.00 | 0.00 | 0.00 | 100 | |
| 20260507193556 | 48 | 270 | 7.0 | 11.0 | 0.00 | 0.00 | 0.00 | 100 | |
| 20260507193155 | 48 | 147 | 5.0 | 9.0 | 0.00 | 0.00 | 0.00 | 100 | |
| 20260507192755 | 48 | 71 | 6.0 | 8.0 | 0.00 | 0.00 | 0.00 | 100 | |
| 20260507192355 | 47 | 49 | 5.0 | 7.0 | 0.00 | 0.00 | 0.00 | 100 | |
| 20260507191955 | 47 | 236 | 5.0 | 9.0 | 0.00 | 0.00 | 0.00 | 100 | |
| 20260507191555 | 47 | 64 | 5.0 | 7.0 | 0.00 | 0.00 | 0.00 | 100 | |
| 20260507191153 | 47 | 113 | 6.0 | 7.0 | 0.00 | 0.00 | 0.00 | 100 | |
| 20260507190753 | 47 | 60 | 5.0 | 7.0 | 0.00 | 0.00 | 0.00 | 100 | |
| 20260507190353 | 47 | 118 | 6.0 | 8.0 | 0.00 | 0.00 | 0.00 | 100 | |
| 20260507185953 | 47 | 59 | 6.0 | 10.0 | 0.00 | 0.00 | 0.00 | 100 | |
| 20260507185553 | 47 | 75 | 6.0 | 8.0 | 0.00 | 0.00 | 0.00 | 100 | |
| 20260507185151 | 47 | 188 | 6.0 | 9.0 | 0.00 | 0.00 | 0.00 | 100 | |
| 20260507184750 | 47 | 121 | 6.0 | 9.0 | 0.00 | 0.00 | 0.00 | 100 | |
| 20260507184350 | 47 | 177 | 6.0 | 9.0 | 0.00 | 0.00 | 0.00 | 100 | |
| 20260507183950 | 46 | 180 | 6.0 | 10.0 | 0.00 | 0.00 | 0.00 | 100 | |
| 20260507183550 | 46 | 161 | 7.0 | 9.0 | 0.00 | 0.00 | 0.00 | 100 | |
| 20260507183148 | 46 | 210 | 7.0 | 10.0 | 0.00 | 0.00 | 0.00 | 100 | |
| 20260507182748 | 46 | 163 | 8.0 | 10.0 | 0.00 | 0.00 | 0.00 | 100 | |
| 20260507182348 | 46 | 174 | 7.0 | 10.0 | 0.00 | 0.00 | 0.00 | 100 | |
| 20260507181948 | 46 | 204 | 7.0 | 11.0 | 0.00 | 0.00 | 0.00 | 100 | |
| 20260507181548 | 46 | 202 | 8.0 | 13.0 | 0.00 | 0.00 | 0.00 | 100 | |
| 20260507181147 | 46 | 189 | 8.0 | 13.0 | 0.00 | 0.00 | 0.00 | 100 | |
| 20260507180747 | 46 | 192 | 8.0 | 12.0 | 0.00 | 0.00 | 0.00 | 100 | |
| 20260507180347 | 46 | 182 | 7.0 | 10.0 | 0.00 | 0.00 | 0.00 | 100 | |
| 20260507175938 | 46 | 177 | 7.0 | 12.0 | 0.00 | 0.00 | 0.00 | 100 | |
| 20260507175538 | 46 | 141 | 7.0 | 10.0 | 0.00 | 0.00 | 0.00 | 100 | |
| 20260507175135 | 46 | 125 | 8.0 | 11.0 | 0.00 | 0.00 | 0.00 | 100 | |
| 20260507174735 | 46 | 195 | 6.0 | 9.0 | 0.00 | 0.00 | 0.00 | 100 | |
| 20260507174335 | 46 | 180 | 9.0 | 12.0 | 0.00 | 0.00 | 0.00 | 100 | |
| 20260507173935 | 46 | 170 | 8.0 | 11.0 | 0.00 | 0.00 | 0.00 | 100 | |
| 20260507173535 | 46 | 143 | 6.0 | 9.0 | 0.00 | 0.00 | 0.00 | 100 | |
| 20260507173133 | 46 | 195 | 7.0 | 11.0 | 0.00 | 0.00 | 0.00 | 100 | |
| 20260507172731 | 46 | 140 | 8.0 | 11.0 | 0.00 | 0.00 | 0.00 | 100 | |
| 20260507172331 | 46 | 199 | 8.0 | 12.0 | 0.00 | 0.00 | 0.00 | 100 | |
| 20260507171930 | 46 | 146 | 6.0 | 8.0 | 0.00 | 0.00 | 0.00 | 100 | |
| 20260507171530 | 46 | 209 | 8.0 | 11.0 | 0.00 | 0.00 | 0.00 | 100 | |
| 20260507171128 | 46 | 201 | 6.0 | 9.0 | 0.00 | 0.00 | 0.00 | 100 | |
| 20260507170728 | 46 | 190 | 7.0 | 10.0 | 0.00 | 0.00 | 0.00 | 100 | |
| 20260507170330 | 46 | 180 | 6.0 | 9.0 | 0.00 | 0.00 | 0.00 | 100 | |
| 20260507165928 | 46 | 206 | 6.0 | 9.0 | 0.00 | 0.00 | 0.00 | 100 | |
| 20260507165528 | 46 | 194 | 7.0 | 11.0 | 0.00 | 0.00 | 0.00 | 100 | |
| 20260507165126 | 46 | 197 | 6.0 | 9.0 | 0.00 | 0.00 | 0.00 | 100 | |
| 20260507164726 | 46 | 182 | 6.0 | 10.0 | 0.00 | 0.00 | 0.00 | 100 | |
| 20260507164326 | 46 | 217 | 6.0 | 8.0 | 0.00 | 0.00 | 0.00 | 100 | |
| 20260507163927 | 46 | 211 | 6.0 | 8.0 | 0.00 | 0.00 | 0.00 | 100 | |
| 20260507163527 | 46 | 208 | 5.0 | 7.0 | 0.00 | 0.00 | 0.00 | 100 | |
| 20260507163125 | 46 | 176 | 7.0 | 9.0 | 0.00 | 0.00 | 0.00 | 100 | |
| 20260507162725 | 46 | 149 | 7.0 | 10.0 | 0.00 | 0.00 | 0.00 | 100 | |
| 20260507162325 | 45 | 198 | 6.0 | 8.0 | 0.00 | 0.00 | 0.00 | 100 | |
| 20260507161925 | 45 | 141 | 7.0 | 9.0 | 0.00 | 0.00 | 0.00 | 100 | |
| 20260507161525 | 45 | 96 | 6.0 | 11.0 | 0.00 | 0.00 | 0.00 | 100 | |
| 20260507161123 | 46 | 161 | 7.0 | 9.0 | 0.00 | 0.00 | 0.00 | 100 | |
| 20260507160723 | 46 | 127 | 8.0 | 14.0 | 0.00 | 0.00 | 0.00 | 100 | |
| 20260507160323 | 47 | 117 | 7.0 | 10.0 | 0.00 | 0.00 | 0.00 | 100 | |
| 20260507155923 | 48 | 210 | 5.0 | 7.0 | 0.00 | 0.00 | 0.00 | 100 | |
| 20260507155610 | 49 | 63 | 5.0 | 7.0 | 0.00 | 0.00 | 0.00 | 100 | |
| 20260507155523 | 49 | 63 | 5.0 | 7.0 | 0.00 | 0.00 | 0.00 | 100 | |
| 20260507155121 | 49 | 238 | 4.0 | 6.0 | 0.00 | 0.00 | 0.00 | 100 | |
| 20260507154724 | 49 | 225 | 2.0 | 3.0 | 0.00 | 0.00 | 0.00 | 100 | |
| 20260507154322 | 47 | 225 | 0.0 | 0.0 | 0.00 | 0.00 | 0.00 | 100 | |
| 20260507153922 | 47 | 225 | 0.0 | 0.0 | 0.00 | 0.00 | 0.00 | 100 | |
| 20260507153522 | 47 | 225 | 1.0 | 2.0 | 0.00 | 0.00 | 0.00 | 100 | |
| 20260507153120 | 47 | 214 | 5.0 | 6.0 | 0.00 | 0.00 | 0.00 | 100 | |
| 20260507152720 | 47 | 189 | 5.0 | 7.0 | 0.00 | 0.00 | 0.00 | 100 | |
| 20260507152310 | 48 | 192 | 7.0 | 10.0 | 0.00 | 0.00 | 0.00 | 100 | |
| 20260507151910 | 48 | 114 | 7.0 | 9.0 | 0.00 | 0.00 | 0.00 | 100 | |
| 20260507151510 | 48 | 73 | 6.0 | 8.0 | 0.00 | 0.00 | 0.00 | 100 | |
| 20260507151108 | 48 | 199 | 7.0 | 9.0 | 0.00 | 0.00 | 0.00 | 100 | |
| 20260507150708 | 49 | 86 | 6.0 | 7.0 | 0.00 | 0.00 | 0.00 | 100 | |
| 20260507150307 | 49 | 151 | 6.0 | 10.0 | 0.00 | 0.00 | 0.00 | 100 | |
| 20260507145907 | 49 | 104 | 5.0 | 8.0 | 0.00 | 0.00 | 0.00 | 100 | |
| 20260507145507 | 50 | 0 | 5.0 | 6.0 | 0.00 | 0.00 | 0.00 | 100 | |
| 20260507145105 | 50 | 33 | 5.0 | 9.0 | 0.00 | 0.00 | 0.00 | 100 | |
| 20260507144705 | 50 | 204 | 5.0 | 7.0 | 0.00 | 0.00 | 0.00 | 100 | |
| 20260507144306 | 50 | 193 | 5.0 | 9.0 | 0.00 | 0.00 | 0.00 | 100 | |
| 20260507143905 | 50 | 202 | 7.0 | 9.0 | 0.00 | 0.00 | 0.00 | 100 | |
| 20260507143505 | 50 | 210 | 6.0 | 9.0 | 0.00 | 0.00 | 0.00 | 100 | |
| 20260507143103 | 50 | 207 | 5.0 | 8.0 | 0.00 | 0.00 | 0.00 | 100 | |
| 20260507142703 | 50 | 185 | 4.0 | 7.0 | 0.00 | 0.00 | 0.00 | 100 | |
| 20260507142306 | 50 | 209 | 6.0 | 7.0 | 0.00 | 0.00 | 0.00 | 100 | |
| 20260507141903 | 50 | 203 | 5.0 | 8.0 | 0.00 | 0.00 | 0.00 | 100 | |
| 20260507141503 | 50 | 211 | 4.0 | 5.0 | 0.00 | 0.00 | 0.00 | 100 | |
| 20260507141101 | 49 | 202 | 3.0 | 5.0 | 0.00 | 0.00 | 0.00 | 100 | |
| 20260507140701 | 50 | 215 | 3.0 | 6.0 | 0.00 | 0.00 | 0.00 | 100 | |
| 20260507140301 | 50 | 207 | 4.0 | 6.0 | 0.00 | 0.00 | 0.00 | 100 | |
| 20260507135902 | 50 | 72 | 4.0 | 7.0 | 0.00 | 0.00 | 0.00 | 100 | |
| 20260507135502 | 49 | 143 | 5.0 | 6.0 | 0.00 | 0.00 | 0.00 | 100 | |
| 20260507135059 | 49 | 25 | 6.0 | 8.0 | 0.00 | 0.00 | 0.00 | 100 | |
| 20260507134659 | 49 | 352 | 6.0 | 8.0 | 0.00 | 0.00 | 0.00 | 100 | |
| 20260507134259 | 49 | 322 | 5.0 | 6.0 | 0.00 | 0.00 | 0.00 | 100 | |
| 20260507133859 | 48 | 165 | 6.0 | 8.0 | 0.00 | 0.00 | 0.00 | 100 | |
| 20260507133459 | 48 | 21 | 5.0 | 7.0 | 0.00 | 0.00 | 0.00 | 100 | |
| 20260507133057 | 48 | 253 | 5.0 | 6.0 | 0.00 | 0.00 | 0.00 | 100 | |
| 20260507132657 | 49 | 100 | 6.0 | 7.0 | 0.00 | 0.00 | 0.00 | 100 | |
| 20260507132257 | 49 | 172 | 6.0 | 10.0 | 0.00 | 0.00 | 0.00 | 100 | |
| 20260507131855 | 48 | 154 | 8.0 | 12.0 | 0.00 | 0.00 | 0.00 | 100 | |
| 20260507131455 | 48 | 169 | 7.0 | 10.0 | 0.00 | 0.00 | 0.00 | 100 | |
| 20260507131053 | 48 | 161 | 7.0 | 8.0 | 0.00 | 0.00 | 0.00 | 100 | |
| 20260507130653 | 47 | 124 | 7.0 | 9.0 | 0.00 | 0.00 | 0.00 | 100 | |
| 20260507130253 | 47 | 246 | 7.0 | 11.0 | 0.00 | 0.00 | 0.00 | 100 | |
| 20260507125853 | 47 | 226 | 5.0 | 9.0 | 0.00 | 0.00 | 0.00 | 100 | |
| 20260507125453 | 47 | 267 | 6.0 | 10.0 | 0.00 | 0.00 | 0.00 | 100 | |
| 20260507125042 | 47 | 265 | 4.0 | 6.0 | 0.00 | 0.00 | 0.00 | 100 | |
| 20260507124642 | 48 | 253 | 5.0 | 8.0 | 0.00 | 0.00 | 0.00 | 100 | |
| 20260507124242 | 49 | 253 | 6.0 | 11.0 | 0.00 | 0.00 | 0.00 | 100 | |
| 20260507123842 | 49 | 238 | 9.0 | 16.0 | 0.00 | 0.00 | 0.00 | 100 | |
| 20260507123442 | 49 | 188 | 7.0 | 10.0 | 0.00 | 0.00 | 0.00 | 100 | |
| 20260507123040 | 49 | 238 | 6.0 | 12.0 | 0.00 | 0.00 | 0.00 | 100 | |
| 20260507122639 | 49 | 37 | 4.0 | 7.0 | 0.00 | 0.00 | 0.00 | 100 | |
| 20260507122239 | 49 | 244 | 4.0 | 6.0 | 0.00 | 0.00 | 0.00 | 100 | |
| 20260507121839 | 49 | 282 | 4.0 | 6.0 | 0.00 | 0.00 | 0.00 | 100 | |
| 20260507121439 | 49 | 263 | 6.0 | 7.0 | 0.00 | 0.00 | 0.00 | 100 | |
| 20260507121037 | 48 | 240 | 5.0 | 7.0 | 0.00 | 0.00 | 0.00 | 100 | |
| 20260507120637 | 48 | 251 | 5.0 | 6.0 | 0.00 | 0.00 | 0.00 | 100 | |
| 20260507120237 | 49 | 251 | 4.0 | 6.0 | 0.00 | 0.00 | 0.00 | 100 | |
| 20260507115836 | 49 | 235 | 8.0 | 14.0 | 0.00 | 0.00 | 0.00 | 100 | |
| 20260507115436 | 49 | 237 | 9.0 | 16.0 | 0.00 | 0.00 | 0.00 | 100 | |
| 20260507115035 | 49 | 240 | 4.0 | 6.0 | 0.00 | 0.00 | 0.00 | 100 | |
| 20260507114635 | 49 | 270 | 3.0 | 5.0 | 0.00 | 0.00 | 0.00 | 100 | |
| 20260507114235 | 49 | 286 | 3.0 | 5.0 | 0.00 | 0.00 | 0.00 | 100 | |
| 20260507113834 | 49 | 243 | 3.0 | 5.0 | 0.00 | 0.00 | 0.00 | 100 | |
| 20260507113434 | 49 | 288 | 3.0 | 5.0 | 0.00 | 0.00 | 0.00 | 100 | |
| 20260507113033 | 50 | 295 | 2.0 | 4.0 | 0.00 | 0.00 | 0.00 | 100 | |
| 20260507112632 | 50 | 278 | 3.0 | 6.0 | 0.00 | 0.00 | 0.00 | 100 | |
| 20260507112232 | 50 | 245 | 4.0 | 6.0 | 0.00 | 0.00 | 0.00 | 100 | |
| 20260507111835 | 50 | 266 | 4.0 | 6.0 | 0.00 | 0.00 | 0.00 | 100 | |
| 20260507111432 | 50 | 232 | 5.0 | 8.0 | 0.00 | 0.00 | 0.00 | 100 | |
| 20260507111030 | 50 | 260 | 6.0 | 20.0 | 0.00 | 0.00 | 0.00 | 100 | |
| 20260507110630 | 50 | 260 | 4.0 | 6.0 | 0.00 | 0.00 | 0.00 | 100 | |
| 20260507110230 | 51 | 288 | 3.0 | 6.0 | 0.00 | 0.00 | 0.00 | 100 | |
| 20260507105829 | 51 | 288 | 4.0 | 7.0 | 0.00 | 0.00 | 0.00 | 100 | |
| 20260507105429 | 52 | 251 | 5.0 | 6.0 | 0.00 | 0.00 | 0.00 | 100 | |
| 20260507105027 | 52 | 265 | 3.0 | 5.0 | 0.00 | 0.00 | 0.00 | 100 | |
| 20260507104627 | 52 | 255 | 3.0 | 7.0 | 0.00 | 0.00 | 0.00 | 100 | |
| 20260507104227 | 52 | 310 | 4.0 | 7.0 | 0.00 | 0.00 | 0.00 | 100 | |
| 20260507103827 | 52 | 273 | 4.0 | 7.0 | 0.00 | 0.00 | 0.00 | 100 | |
| 20260507103427 | 52 | 304 | 4.0 | 8.0 | 0.00 | 0.00 | 0.00 | 100 | |
| 20260507103025 | 52 | 20 | 2.0 | 5.0 | 0.00 | 0.00 | 0.00 | 100 | |
| 20260507102625 | 52 | 261 | 4.0 | 10.0 | 0.00 | 0.00 | 0.00 | 100 | |
| 20260507102225 | 52 | 208 | 4.0 | 7.0 | 0.00 | 0.00 | 0.00 | 100 | |
| 20260507101826 | 52 | 215 | 3.0 | 5.0 | 0.00 | 0.00 | 0.00 | 100 | |
| 20260507101418 | 53 | 234 | 3.0 | 6.0 | 0.00 | 0.00 | 0.00 | 100 | |
| 20260507101016 | 53 | 251 | 5.0 | 6.0 | 0.00 | 0.00 | 0.00 | 100 | |
| 20260507100616 | 53 | 227 | 5.0 | 9.0 | 0.00 | 0.00 | 0.00 | 100 | |
| 20260507100216 | 53 | 221 | 5.0 | 7.0 | 0.00 | 0.00 | 0.00 | 100 | |
| 20260507095816 | 53 | 274 | 7.0 | 10.0 | 0.00 | 0.00 | 0.00 | 100 | |
| 20260507095415 | 53 | 188 | 6.0 | 10.0 | 0.00 | 0.00 | 0.00 | 100 | |
| 20260507095014 | 53 | 278 | 5.0 | 8.0 | 0.00 | 0.00 | 0.00 | 100 | |
| 20260507094614 | 54 | 266 | 4.0 | 6.0 | 0.00 | 0.00 | 0.00 | 100 | |
| 20260507094214 | 54 | 253 | 5.0 | 9.0 | 0.00 | 0.00 | 0.00 | 100 | |
| 20260507093814 | 54 | 260 | 2.0 | 4.0 | 0.00 | 0.00 | 0.00 | 100 | |
| 20260507093413 | 54 | 308 | 0.0 | 1.0 | 0.00 | 0.00 | 0.00 | 100 | |
| 20260507093011 | 53 | 309 | 1.0 | 2.0 | 0.00 | 0.00 | 0.00 | 100 | |
| 20260507092611 | 53 | 309 | 1.0 | 2.0 | 0.00 | 0.00 | 0.00 | 100 | |
| 20260507092211 | 54 | 270 | 3.0 | 4.0 | 0.00 | 0.00 | 0.00 | 100 | |
| 20260507091811 | 54 | 289 | 2.0 | 5.0 | 0.00 | 0.00 | 0.00 | 100 | |
| 20260507091411 | 54 | 326 | 3.0 | 5.0 | 0.00 | 0.00 | 0.00 | 100 | |
| 20260507091009 | 54 | 281 | 1.0 | 2.0 | 0.00 | 0.00 | 0.00 | 100 | |
| 20260507090607 | 53 | 289 | 3.0 | 5.0 | 0.00 | 0.00 | 0.00 | 100 | |
| 20260507090207 | 53 | 301 | 1.0 | 2.0 | 0.00 | 0.00 | 0.00 | 100 | |
| 20260507085807 | 52 | 265 | 3.0 | 5.0 | 0.00 | 0.00 | 0.00 | 100 | |
| 20260507085407 | 52 | 262 | 3.0 | 4.0 | 0.00 | 0.00 | 0.00 | 100 | |
| 20260507085005 | 53 | 294 | 3.0 | 5.0 | 0.00 | 0.00 | 0.00 | 100 | |
| 20260507084605 | 53 | 299 | 2.0 | 3.0 | 0.00 | 0.00 | 0.00 | 100 | |
| 20260507084205 | 52 | 266 | 4.0 | 6.0 | 0.00 | 0.00 | 0.00 | 100 | |
| 20260507083804 | 52 | 272 | 2.0 | 3.0 | 0.00 | 0.00 | 0.00 | 100 | |
| 20260507083404 | 51 | 276 | 3.0 | 4.0 | 0.00 | 0.00 | 0.00 | 100 | |
| 20260507083002 | 51 | 291 | 2.0 | 4.0 | 0.00 | 0.00 | 0.00 | 100 | |
| 20260507082602 | 52 | 219 | 4.0 | 7.0 | 0.00 | 0.00 | 0.00 | 100 | |
| 20260507082202 | 52 | 252 | 5.0 | 8.0 | 0.00 | 0.00 | 0.00 | 100 | |
| 20260507081802 | 52 | 241 | 5.0 | 7.0 | 0.00 | 0.00 | 0.00 | 100 | |
| 20260507081402 | 52 | 315 | 6.0 | 10.0 | 0.00 | 0.00 | 0.00 | 100 | |
| 20260507081000 | 52 | 288 | 5.0 | 7.0 | 0.00 | 0.00 | 0.00 | 100 | |
| 20260507080600 | 52 | 253 | 5.0 | 7.0 | 0.00 | 0.00 | 0.00 | 100 | |
| 20260507080200 | 52 | 30 | 5.0 | 8.0 | 0.00 | 0.00 | 0.00 | 100 | |
| 20260507075800 | 52 | 319 | 5.0 | 7.0 | 0.00 | 0.00 | 0.00 | 100 | |
| 20260507075400 | 52 | 100 | 4.0 | 9.0 | 0.00 | 0.00 | 0.00 | 100 | |
| 20260507074958 | 52 | 163 | 5.0 | 6.0 | 0.00 | 0.00 | 0.00 | 100 | |
| 20260507074558 | 52 | 148 | 6.0 | 10.0 | 0.00 | 0.00 | 0.00 | 100 | |
| 20260507074158 | 52 | 208 | 6.0 | 10.0 | 0.00 | 0.00 | 0.00 | 100 | |
| 20260507073749 | 52 | 110 | 7.0 | 11.0 | 0.00 | 0.00 | 0.00 | 100 | |
| 20260507073348 | 52 | 141 | 8.0 | 11.0 | 0.00 | 0.00 | 0.00 | 100 | |
| 20260507072946 | 52 | 202 | 6.0 | 8.0 | 0.00 | 0.00 | 0.00 | 100 | |
| 20260507072547 | 52 | 150 | 7.0 | 11.0 | 0.00 | 0.00 | 0.00 | 100 | |
| 20260507072147 | 52 | 172 | 8.0 | 12.0 | 0.00 | 0.00 | 0.00 | 100 | |
| 20260507071747 | 53 | 145 | 8.0 | 10.0 | 0.00 | 0.00 | 0.00 | 100 | |
| 20260507071346 | 53 | 172 | 7.0 | 12.0 | 0.00 | 0.00 | 0.00 | 100 | |
| 20260507070944 | 52 | 200 | 6.0 | 10.0 | 0.00 | 0.00 | 0.00 | 100 | |
| 20260507070544 | 52 | 193 | 6.0 | 9.0 | 0.00 | 0.00 | 0.00 | 100 | |
| 20260507070144 | 52 | 163 | 9.0 | 16.0 | 0.00 | 0.00 | 0.00 | 100 | |
| 20260507065823 | 52 | 178 | 7.0 | 13.0 | 0.00 | 0.00 | 0.00 | 100 | |
| 20260507065744 | 52 | 178 | 7.0 | 13.0 | 0.00 | 0.00 | 0.00 | 100 | |
| 20260507065344 | 52 | 164 | 8.0 | 13.0 | 0.00 | 0.00 | 0.00 | 100 | |
| 20260507064942 | 52 | 167 | 8.0 | 17.0 | 0.00 | 0.00 | 0.00 | 100 | |
| 20260507064542 | 52 | 183 | 8.0 | 12.0 | 0.00 | 0.00 | 0.00 | 100 | |
| 20260507064142 | 52 | 210 | 9.0 | 14.0 | 0.00 | 0.00 | 0.00 | 100 | |
| 20260507063742 | 52 | 152 | 10.0 | 14.0 | 0.00 | 0.00 | 0.00 | 100 | |
| 20260507063341 | 52 | 183 | 10.0 | 18.0 | 0.00 | 0.00 | 0.00 | 100 | |
| 20260507062940 | 52 | 176 | 11.0 | 19.0 | 0.00 | 0.00 | 0.00 | 100 | |
| 20260507062542 | 52 | 140 | 11.0 | 15.0 | 0.00 | 0.00 | 0.00 | 100 | |
| 20260507062139 | 52 | 181 | 9.0 | 15.0 | 0.00 | 0.00 | 0.00 | 100 | |
| 20260507061739 | 51 | 149 | 9.0 | 16.0 | 0.00 | 0.00 | 0.00 | 100 | |
| 20260507061340 | 51 | 176 | 7.0 | 9.0 | 0.00 | 0.00 | 0.00 | 100 | |
| 20260507060937 | 51 | 138 | 11.0 | 19.0 | 0.00 | 0.00 | 0.00 | 100 | |
| 20260507060537 | 51 | 168 | 9.0 | 13.0 | 0.00 | 0.00 | 0.00 | 100 | |
| 20260507060137 | 51 | 178 | 8.0 | 13.0 | 0.00 | 0.00 | 0.00 | 100 | |
| 20260507055737 | 51 | 177 | 8.0 | 15.0 | 0.00 | 0.00 | 0.00 | 100 | |
| 20260507055337 | 51 | 158 | 9.0 | 12.0 | 0.00 | 0.00 | 0.00 | 100 | |
| 20260507054935 | 51 | 195 | 10.0 | 15.0 | 0.00 | 0.00 | 0.00 | 100 | |
| 20260507054535 | 51 | 172 | 8.0 | 16.0 | 0.00 | 0.00 | 0.00 | 100 | |
| 20260507054135 | 51 | 177 | 10.0 | 12.0 | 0.00 | 0.00 | 0.00 | 100 | |
| 20260507053735 | 51 | 156 | 11.0 | 16.0 | 0.00 | 0.00 | 0.00 | 100 | |
| 20260507053335 | 51 | 167 | 9.0 | 14.0 | 0.00 | 0.00 | 0.00 | 100 | |
| 20260507052936 | 51 | 151 | 9.0 | 14.0 | 0.00 | 0.00 | 0.00 | 100 | |
| 20260507052533 | 50 | 159 | 8.0 | 13.0 | 0.00 | 0.00 | 0.00 | 100 | |
| 20260507052133 | 50 | 159 | 9.0 | 12.0 | 0.00 | 0.00 | 0.00 | 100 | |
| 20260507051733 | 50 | 191 | 10.0 | 16.0 | 0.00 | 0.00 | 0.00 | 100 | |
| 20260507051333 | 50 | 168 | 9.0 | 12.0 | 0.00 | 0.00 | 0.00 | 100 | |
| 20260507050931 | 50 | 181 | 10.0 | 15.0 | 0.00 | 0.00 | 0.00 | 100 | |
| 20260507050531 | 50 | 154 | 10.0 | 14.0 | 0.00 | 0.00 | 0.00 | 100 | |
| 20260507050124 | 50 | 183 | 9.0 | 14.0 | 0.00 | 0.00 | 0.00 | 100 | |
| 20260507045721 | 49 | 179 | 11.0 | 17.0 | 0.00 | 0.00 | 0.00 | 100 | |
| 20260507045321 | 49 | 167 | 8.0 | 11.0 | 0.00 | 0.00 | 0.00 | 100 | |
| 20260507044919 | 50 | 117 | 7.0 | 10.0 | 0.00 | 0.00 | 0.00 | 100 | |
| 20260507044519 | 50 | 150 | 10.0 | 20.0 | 0.00 | 0.00 | 0.00 | 100 | |
| 20260507044119 | 50 | 140 | 11.0 | 20.0 | 0.00 | 0.00 | 0.00 | 100 | |
| 20260507043719 | 50 | 128 | 11.0 | 14.0 | 0.00 | 0.00 | 0.00 | 100 | |
| 20260507043319 | 50 | 158 | 13.0 | 19.0 | 0.00 | 0.00 | 0.00 | 100 | |
| 20260507042917 | 50 | 163 | 14.0 | 24.0 | 0.00 | 0.00 | 0.00 | 100 | |
| 20260507042517 | 50 | 196 | 11.0 | 17.0 | 0.00 | 0.00 | 0.00 | 100 | |
| 20260507042117 | 50 | 151 | 11.0 | 19.0 | 0.00 | 0.00 | 0.00 | 100 | |
| 20260507041717 | 50 | 162 | 11.0 | 15.0 | 0.00 | 0.00 | 0.00 | 100 | |
| 20260507041316 | 50 | 184 | 11.0 | 18.0 | 0.00 | 0.00 | 0.00 | 100 | |
| 20260507040914 | 50 | 138 | 10.0 | 14.0 | 0.00 | 0.00 | 0.00 | 100 | |
| 20260507040514 | 50 | 123 | 11.0 | 16.0 | 0.00 | 0.00 | 0.00 | 100 | |
| 20260507040114 | 49 | 119 | 11.0 | 19.0 | 0.00 | 0.00 | 0.00 | 100 | |
| 20260507035714 | 49 | 125 | 12.0 | 15.0 | 0.00 | 0.00 | 0.00 | 100 | |
| 20260507035314 | 50 | 136 | 12.0 | 19.0 | 0.00 | 0.00 | 0.00 | 100 | |
| 20260507034912 | 50 | 165 | 13.0 | 20.0 | 0.00 | 0.00 | 0.00 | 100 | |
| 20260507034512 | 50 | 135 | 10.0 | 16.0 | 0.00 | 0.00 | 0.00 | 100 | |
| 20260507034112 | 50 | 148 | 15.0 | 24.0 | 0.00 | 0.00 | 0.00 | 100 | |
| 20260507033712 | 50 | 170 | 13.0 | 21.0 | 0.00 | 0.00 | 0.00 | 100 | |
| 20260507033311 | 50 | 173 | 15.0 | 21.0 | 0.00 | 0.00 | 0.00 | 100 | |
| 20260507032909 | 50 | 166 | 14.0 | 22.0 | 0.00 | 0.00 | 0.00 | 100 | |
| 20260507032509 | 50 | 163 | 13.0 | 19.0 | 0.00 | 0.00 | 0.00 | 100 | |
| 20260507032109 | 50 | 173 | 14.0 | 21.0 | 0.00 | 0.00 | 0.00 | 100 | |
| 20260507031709 | 50 | 180 | 16.0 | 22.0 | 0.00 | 0.00 | 0.00 | 100 | |
| 20260507031310 | 50 | 126 | 12.0 | 18.0 | 0.00 | 0.00 | 0.00 | 100 | |
| 20260507030507 | 50 | 166 | 17.0 | 25.0 | 0.00 | 0.00 | 0.00 | 100 | |
| 20260507030107 | 50 | 173 | 15.0 | 24.0 | 0.00 | 0.00 | 0.00 | 100 | |
| 20260507025707 | 50 | 168 | 18.0 | 27.0 | 0.00 | 0.00 | 0.00 | 100 | |
| 20260507025307 | 50 | 144 | 14.0 | 19.0 | 0.00 | 0.00 | 0.00 | 100 | |
| 20260507024905 | 50 | 151 | 16.0 | 24.0 | 0.00 | 0.00 | 0.00 | 100 | |
| 20260507024505 | 50 | 165 | 15.0 | 24.0 | 0.00 | 0.00 | 0.00 | 100 | |
| 20260507024105 | 50 | 173 | 13.0 | 18.0 | 0.00 | 0.00 | 0.00 | 100 | |
| 20260507023705 | 50 | 180 | 14.0 | 17.0 | 0.00 | 0.00 | 0.00 | 100 | |
| 20260507023305 | 50 | 167 | 14.0 | 22.0 | 0.00 | 0.00 | 0.00 | 100 | |
| 20260507022854 | 50 | 167 | 13.0 | 17.0 | 0.00 | 0.00 | 0.00 | 100 | |
| 20260507022454 | 50 | 164 | 11.0 | 14.0 | 0.00 | 0.00 | 0.00 | 100 | |
| 20260507022054 | 50 | 209 | 13.0 | 21.0 | 0.00 | 0.00 | 0.00 | 100 | |
| 20260507021653 | 50 | 177 | 13.0 | 20.0 | 0.00 | 0.00 | 0.00 | 100 | |
| 20260507021253 | 50 | 173 | 15.0 | 24.0 | 0.00 | 0.00 | 0.00 | 100 | |
| 20260507020851 | 50 | 183 | 14.0 | 26.0 | 0.00 | 0.00 | 0.00 | 100 | |
| 20260507020451 | 50 | 134 | 13.0 | 20.0 | 0.00 | 0.00 | 0.00 | 100 | |
| 20260507020052 | 50 | 174 | 15.0 | 22.0 | 0.00 | 0.00 | 0.00 | 100 | |
| 20260507015651 | 50 | 165 | 14.0 | 22.0 | 0.00 | 0.00 | 0.00 | 100 | |
| 20260507015251 | 50 | 172 | 14.0 | 31.0 | 0.00 | 0.00 | 0.00 | 100 | |
| 20260507014849 | 50 | 191 | 13.0 | 23.0 | 0.00 | 0.00 | 0.00 | 100 | |
| 20260507014449 | 50 | 166 | 15.0 | 21.0 | 0.00 | 0.00 | 0.00 | 100 | |
| 20260507014049 | 50 | 176 | 14.0 | 29.0 | 0.00 | 0.00 | 0.00 | 100 | |
| 20260507013649 | 50 | 166 | 14.0 | 22.0 | 0.00 | 0.00 | 0.00 | 100 | |
| 20260507013248 | 51 | 188 | 14.0 | 24.0 | 0.00 | 0.00 | 0.00 | 100 | |
| 20260507012847 | 51 | 165 | 15.0 | 27.0 | 0.00 | 0.00 | 0.00 | 100 | |
| 20260507012447 | 51 | 174 | 13.0 | 21.0 | 0.00 | 0.00 | 0.00 | 100 | |
| 20260507012047 | 51 | 184 | 16.0 | 21.0 | 0.00 | 0.00 | 0.00 | 100 | |
| 20260507011647 | 51 | 163 | 14.0 | 20.0 | 0.00 | 0.00 | 0.00 | 100 | |
| 20260507011246 | 51 | 174 | 17.0 | 25.0 | 0.00 | 0.00 | 0.00 | 100 | |
| 20260507010844 | 51 | 153 | 14.0 | 19.0 | 0.00 | 0.00 | 0.00 | 100 | |
| 20260507010444 | 51 | 151 | 15.0 | 24.0 | 0.00 | 0.00 | 0.00 | 100 | |
| 20260507010044 | 51 | 173 | 12.0 | 17.0 | 0.00 | 0.00 | 0.00 | 100 | |
| 20260507005644 | 52 | 169 | 14.0 | 18.0 | 0.00 | 0.00 | 0.00 | 100 | |
| 20260507005244 | 52 | 180 | 16.0 | 22.0 | 0.00 | 0.00 | 0.00 | 100 | |
| 20260507004842 | 51 | 156 | 14.0 | 24.0 | 0.00 | 0.00 | 0.00 | 100 | |
| 20260507004440 | 52 | 177 | 13.0 | 17.0 | 0.00 | 0.00 | 0.00 | 100 | |
| 20260507004040 | 52 | 167 | 13.0 | 26.0 | 0.00 | 0.00 | 0.00 | 100 | |
| 20260507003640 | 52 | 158 | 12.0 | 19.0 | 0.00 | 0.00 | 0.00 | 100 | |
| 20260507003240 | 52 | 166 | 10.0 | 17.0 | 0.00 | 0.00 | 0.00 | 100 | |
| 20260507002838 | 52 | 169 | 11.0 | 16.0 | 0.00 | 0.00 | 0.00 | 100 | |
| 20260507002438 | 52 | 157 | 12.0 | 16.0 | 0.00 | 0.00 | 0.00 | 100 |